Location: �perlecques
(50.8057°N, 2.1521°E)
Time: 20:08:14
(UTC+00:00)

Tiros 1 - Pass Details

Date: 03 August 2021
Orbit: 630 x 663 km, 48.4° (Epoch: 28 September)

Event Time Altitude Azimuth Distance (km) Brightness Sun altitude
Rises 17:12:24 0° 222° (SW) 2,982 11.1 20.4°
Reaches altitude 10° 17:14:57 10° 211° (SSW) 2,069 10.2 20.0°
Maximum altitude 17:19:07 30° 151° (SSE) 1,165 8.4 19.4°
Drops below altitude 10° 17:23:16 10° 90° (E) 2,062 9.2 18.7°
Sets 17:25:48 0° 80° (E) 2,969 10.0 18.3°
